CAPE
0 0 0 0 0 0 0 0 0 0 0 0 0 0 14 112 56 196 43 4 1 340 688 1045 1829 1741 1358 1245 1623 1861 1962 2059 2122 2005 1754 1328 1055 592 168 33 0 0 0 0 0 0 0 0 0
0 0 0 0 0 0 0 0 0 0 0 0 0 2 38 106 117 117 68 26 79 766 646 82 1780 1801 1602 1228 1100 1341 1531 1658 1759 1701 1322 960 745 437 82 32 0 0 0 0 0 0 0 0 0
0 0 0 0 0 0 0 0 0 10 6 0 0 0 2 85 45 29 196 104 159 797 694 219 1711 1713 1754 1509 1195 1038 1082 1241 1347 1269 1128 903 700 567 215 54 5 0 0 0 0 0 0 0 0
0 0 0 0 0 0 0 2 3 42 1 0 0 0 0 35 52 12 131 123 486 750 616 1280 1548 1589 1711 1661 1391 1242 1094 1025 1070 1005 935 816 632 424 135 81 51 6 0 3 15 20 14 29 79
0 0 0 0 0 0 0 0 22 7 26 39 0 16 1 16 41 51 117 222 462 616 627 1454 1501 1542 1574 1637 1532 1375 1316 1161 1130 1090 932 651 491 223 144 117 56 34 27 18 26 26 64 84 115
0 0 0 0 0 0 0 0 0 0 17 58 28 88 36 105 151 6 14 146 190 375 590 1252 1528 1626 1528 1472 1376 1210 1112 1104 1046 884 757 530 325 252 183 160 128 138 155 144 98 109 199 273 388
0 0 0 0 0 0 0 0 0 0 0 78 117 109 167 146 174 0 0 34 89 244 543 1162 1660 1079 1600 1450 1258 1112 955 838 705 551 457 407 356 334 294 259 239 288 395 561 643 485 510 658 719
0 0 0 0 0 0 0 0 0 0 0 92 64 111 124 74 20 1 7 54 131 241 429 621 1728 539 362 399 1424 1220 1015 880 673 598 576 528 502 456 452 351 385 596 696 882 979 815 778 826 1112
0 0 0 0 0 0 0 0 0 0 0 54 32 81 50 25 164 69 69 132 131 183 345 645 1083 1036 372 113 469 1223 1114 1035 813 702 678 451 8 33 22 76 317 789 954 1058 1078 918 1057 1162 1198
0 0 0 0 0 0 0 0 0 0 0 0 35 0 0 85 164 101 81 145 166 190 273 658 1267 1280 991 201 426 751 192 210 168 58 138 105 79 71 10 92 424 817 1083 1142 1188 1325 1366 1238 650
0 0 0 0 0 0 0 0 0 0 0 2 68 1 11 11 102 203 139 159 129 120 211 278 2294 2389 1631 940 343 1290 1027 689 572 536 404 590 101 165 173 185 199 365 758 464 874 1080 1043 1002 916
0 0 0 0 0 6 0 0 0 0 0 0 72 110 26 9 0 8 5 11 26 17 0 0 196 2544 2830 1338 786 449 797 1300 808 652 1058 757 531 618 783 303 326 888 416 712 840 940 1215 1178 1477
0 0 0 0 0 0 0 0 0 0 0 0 0 30 2 0 0 6 0 0 0 1 1 15 36 2378 3048 3409 1425 1541 1369 1165 1386 975 1329 1309 595 932 565 917 475 853 418 526 1098 1336 1670 1823 1347
0 0 0 0 0 0 0 0 0 0 0 0 0 0 0 0 0 1 0 0 1 10 6 0 19 2645 3048 3127 3563 3302 3030 1750 1720 1583 1803 1788 1117 1195 1002 1325 1008 845 823 753 930 1287 1445 1431 1553
0 0 0 0 0 0 0 0 0 0 0 0 0 0 0 6 26 0 0 137 0 15 61 549 426 980 3533 3981 3733 2903 1465 1978 1443 1570 2717 2631 2142 1791 1710 1421 1139 904 1147 1699 1494 2011 1458 1395 1404
0 0 0 0 0 0 0 0 0 0 0 0 2 8 1 14 19 19 0 7 119 270 236 678 73 446 2849 3407 3010 2308 1478 1030 1135 1349 1664 2676 2844 2406 2392 1162 1293 1277 1254 1210 915 1030 875 1479 1372
0 0 0 0 0 0 0 0 0 0 0 1 4 10 7 30 60 121 3 39 0 30 137 439 776 150 1596 2354 1353 1634 2335 1382 1047 1185 1203 2569 2513 2318 2311 1646 1453 2068 1218 1082 1031 1129 1330 1352 1208
0 0 0 0 0 0 0 0 0 0 0 0 1 0 0 0 3 15 13 0 0 245 625 836 523 1041 1970 982 1839 530 445 1129 1399 1262 1368 2575 2387 1960 2577 1892 1910 1826 1229 1084 1022 1408 1185 1293 1153
0 0 0 0 0 0 0 0 0 0 0 0 0 0 2 12 0 0 2 0 0 154 376 868 902 1851 1052 112 124 106 101 878 1236 1517 2594 2391 2112 2223 2589 1798 2017 1805 1422 1484 1798 1450 1896 1493 1794
0 0 0 0 0 0 0 0 0 0 0 0 0 0 0 0 0 0 0 0 111 170 278 623 1144 1680 2021 569 982 398 1187 796 1289 1563 2397 2158 1785 2141 2197 2195 2045 2050 1323 2200 2079 1878 1197 1150 1897
0 0 0 0 0 2 0 0 0 0 0 0 0 0 0 0 0 0 0 7 48 49 257 324 841 1515 2035 1512 1259 2038 1930 2345 1594 1856 1732 1890 1726 1980 2208 1955 2240 2579 1726 1202 2016 1673 1858 1490 1799
0 0 0 0 0 0 0 0 0 0 0 0 0 0 0 0 0 0 0 0 2 2 4 260 670 1462 1960 2775 1032 2331 1591 1484 1567 1980 1973 1890 1930 1696 1841 1932 1935 2257 1530 1792 1550 1716 1989 2177 1741
1 4 3 0 0 0 0 0 0 0 0 0 0 0 0 0 0 0 0 0 0 0 3 201 849 1530 1735 1996 1697 956 2316 1535 1815 1861 2416 2276 2213 2059 1666 1839 1935 2000 1563 1944 2100 2712 2420 1791 1235
21 12 30 28 7 0 0 0 0 0 0 0 0 0 0 0 0 0 0 0 0 0 0 5 798 1269 1734 2142 2581 3396 3448 3056 2350 2324 1970 2129 1782 1724 1661 1646 1927 1884 1824 2940 2366 2475 1848 1631 1451
66 55 0 0 0 0 0 0 19 0 3 1 0 0 0 0 0 0 0 0 0 0 0 0 1 832 1769 1633 1907 2163 2960 4077 3728 2606 1646 1769 1508 1826 1830 2163 2244 1818 2624 2234 2087 1814 1608 1352 1028
117 120 70 0 0 0 45 0 5 13 13 1 0 0 0 0 0 0 0 0 0 0 78 468 796 1447 1704 1480 1878 2194 2693 2466 2689 2032 1661 1837 1791 2170 2400 2372 2706 2117 1858 1525 1622 1417 1130 1162 695
263 167 204 183 133 38 8 12 44 11 22 0 0 0 0 0 0 2 8 0 0 37 1085 1586 1795 1819 1669 1793 2084 2523 2412 3288 2341 3089 3190 2308 2946 2366 2150 2311 1970 1728 1442 1463 1517 892 734 1078 1210
241 202 204 228 11 9 117 45 86 34 26 2 1 0 0 257 351 150 19 65 895 1794 2174 2139 2083 2105 2159 2260 2407 2744 3110 3053 2644 3045 2256 2424 2817 2581 2106 1809 1661 1416 1253 1063 940 825 649 893 1419
37 43 162 189 44 118 173 138 55 42 0 4 1 0 379 895 592 284 1079 1625 2173 2396 2410 2455 2352 2308 2389 2534 2539 2590 2302 2270 2324 2140 2186 1972 2125 1560 1318 1198 1110 955 720 615 825 862 706 720 1066
203 230 152 104 188 217 40 20 65 276 103 57 10 3 325 929 1021 1116 1630 2089 2249 2330 2299 2338 2383 2313 2226 2236 2314 2178 2322 2200 2358 1684 1509 1329 1268 1116 906 710 531 329 308 621 760 758 661 729 809
CIN
0 0 0 0 0 0 0 0 0 0 0 0 0 0 -31 -2 -2 -7 -63 -74 -24 -75 -300 -455 -360 -323 -335 -325 -237 -194 -150 -118 -90 -75 -86 -115 -135 -178 -230 -241 0 0 0 0 0 0 0 0 0
0 0 0 0 0 0 0 0 0 0 0 0 0 -28 -44 -2 -2 -69 -97 -143 -137 -118 -302 -438 -352 -305 -304 -338 -320 -259 -195 -151 -121 -107 -139 -169 -182 -208 -276 -321 0 0 0 0 0 0 0 0 0
0 0 0 0 0 0 0 0 0 0 -4 0 0 0 -7 -2 -31 -36 -152 -149 -119 -142 -268 -349 -380 -335 -280 -304 -312 -305 -260 -215 -169 -153 -161 -192 -204 -208 -236 -308 -277 0 0 0 0 0 0 0 0
0 0 0 0 0 0 0 -1 0 -1 0 0 0 0 0 -49 -65 -33 -107 -152 -88 -123 -202 -385 -418 -350 -292 -276 -293 -286 -264 -255 -224 -207 -199 -213 -231 -239 -292 -326 -338 -74 0 -134 -367 -368 -368 -323 -261
0 0 0 0 0 0 0 0 -2 0 -1 -2 0 -16 -6 -101 -43 -43 -82 -76 -76 -77 -136 -313 -435 -348 -310 -277 -272 -273 -262 -247 -235 -220 -221 -239 -259 -304 -322 -332 -371 -383 -382 -373 -330 -334 -309 -300 -260
0 0 0 0 0 0 0 0 0 0 0 -2 -7 -1 -10 -25 -36 -31 -58 -66 -67 -65 -89 -190 -412 -349 -326 -309 -318 -322 -317 -277 -262 -269 -275 -288 -302 -325 -307 -303 -312 -285 -260 -272 -263 -255 -217 -203 -165
0 0 0 0 0 0 0 0 0 0 0 0 0 0 -4 -8 -19 0 0 -39 -51 -56 -75 -115 -299 -420 -329 -322 -343 -353 -362 -364 -356 -354 -358 -328 -312 -301 -293 -296 -284 -241 -200 -151 -124 -147 -153 -109 -90
0 0 0 0 0 0 0 0 0 0 0 -1 -6 0 -2 -1 -13 -13 -36 -20 -25 -34 -58 -52 -166 -355 -424 -431 -318 -341 -357 -369 -391 -382 -359 -330 -289 -276 -274 -299 -265 -198 -163 -117 -90 -114 -113 -98 -59
0 0 0 0 0 0 0 0 0 0 0 -3 -7 -12 -16 -3 -21 -16 -11 -4 -11 -14 -41 -45 -73 -201 -302 -283 -379 -329 -329 -329 -355 -366 -354 -373 -169 -414 -312 -446 -304 -178 -123 -101 -101 -131 -98 -55 -58
0 0 0 0 0 0 0 0 0 0 0 0 0 0 0 -23 -15 -2 -1 -1 0 -1 -8 -22 -67 -96 -160 -154 -219 -369 -427 -454 -461 -489 -450 -491 -460 -398 -239 -401 -292 -177 -93 -83 -111 -146 -157 -94 -88
0 0 0 0 0 0 0 0 0 0 0 -21 -1 -1 -39 -23 -7 0 -2 0 -1 0 0 -1 -41 -84 -97 -109 -124 -206 -263 -325 -362 -392 -400 -366 -434 -332 -325 -290 -333 -274 -178 -220 -130 -92 -108 -141 -80
0 0 0 0 0 0 0 0 0 0 0 0 -1 -1 -16 -33 -3 -18 -23 -14 -10 -13 0 0 -42 -108 -131 -101 -146 -146 -132 -178 -287 -350 -318 -320 -344 -277 -208 -259 -240 -192 -244 -168 -130 -104 -112 -132 -39
0 0 0 0 0 0 0 0 0 0 0 0 0 -14 -10 0 0 -59 0 0 0 -28 -27 -48 -55 -64 -158 -138 -100 -122 -110 -121 -155 -217 -265 -265 -304 -232 -255 -169 -183 -166 -222 -230 -75 -66 -38 -22 -38
0 0 0 0 0 0 0 0 0 0 0 0 0 0 0 0 0 -27 0 0 -93 -97 -95 0 -66 -34 -114 -131 -108 -60 -91 -91 -103 -129 -137 -225 -273 -202 -202 -161 -168 -98 -135 -136 -108 -14 -1 -16 -9
0 0 0 0 0 0 0 0 0 0 0 0 0 0 0 -77 -46 0 0 -52 -29 -41 -96 -87 -114 -71 -62 -100 -86 -104 -97 -99 -102 -83 -74 -57 -160 -150 -156 -156 -159 -130 -70 -23 -26 0 -18 -4 -15
0 0 0 0 0 0 0 0 0 0 0 0 -47 -31 -1 -40 -29 -33 0 -59 -32 -52 -86 -107 -135 -87 -60 -65 -77 -88 -78 -101 -84 -102 -92 -72 -80 -122 -88 -189 -138 -108 -85 -94 -109 -59 -59 -10 -5
0 0 0 0 0 0 0 0 0 0 0 -13 -22 -18 -20 -27 -19 -19 -20 -32 0 -135 -171 -158 -132 -170 -59 -46 -118 -103 -99 -108 -101 -83 -121 -52 -106 -137 -112 -136 -114 -53 -98 -95 -104 -84 -41 -10 -3
0 0 0 0 0 0 0 0 0 0 0 0 -34 0 0 0 -25 -28 -41 0 0 -136 -169 -194 -188 -111 -66 -100 -88 -140 -109 -99 -109 -120 -105 -61 -104 -151 -100 -103 -103 -68 -108 -103 -127 -60 -52 -12 -6
0 0 0 0 0 0 0 0 0 0 0 0 0 0 -2 -20 0 0 -62 0 0 -191 -197 -179 -179 -120 -136 -203 -185 -138 -99 -76 -108 -135 -84 -89 -109 -126 -102 -138 -95 -83 -107 -79 -42 -48 -2 -19 0
0 0 0 0 0 0 0 0 0 0 0 0 0 0 0 0 0 0 0 0 -185 -211 -226 -214 -143 -108 -84 -163 -143 -133 -39 -62 -76 -118 -97 -131 -156 -120 -126 -91 -85 -73 -110 -20 -21 -25 -54 -28 -2
0 0 0 0 0 0 0 0 0 0 0 0 0 0 0 0 0 0 0 -194 -163 -180 -213 -225 -168 -110 -69 -121 -88 -50 -67 -44 -41 -75 -153 -171 -172 -146 -103 -121 -52 -31 -64 -117 -34 -50 -2 -3 0
0 0 0 0 0 0 0 0 0 0 0 0 0 0 0 0 0 0 0 0 -86 -133 -44 -184 -173 -105 -77 -49 -139 -50 -60 -62 -68 -69 -108 -172 -156 -190 -136 -105 -76 -44 -83 -45 -68 -10 0 0 0
0 0 0 0 0 0 0 0 0 0 0 0 0 0 0 0 0 0 0 0 0 0 -173 -207 -140 -99 -84 -69 -124 -85 -65 -61 -70 -65 -98 -117 -128 -128 -139 -93 -63 -49 -57 -17 0 0 0 -1 0
0 0 0 0 0 0 0 0 0 0 0 0 0 0 0 0 0 0 0 0 0 0 0 -206 -168 -115 -97 -85 -83 -38 -23 -9 -34 -57 -150 -125 -160 -144 -118 -87 -48 -29 -9 0 0 0 0 0 0
0 0 0 0 0 0 0 0 0 0 0 0 0 0 0 0 0 0 0 0 0 0 0 0 -61 -168 -113 -144 -121 -116 -31 0 0 -63 -177 -155 -170 -104 -82 -30 -8 -5 0 0 0 0 0 0 0
-1 0 0 0 0 0 0 0 0 0 0 0 0 0 0 0 0 0 0 0 0 0 -217 -157 -139 -117 -134 -175 -126 -86 -34 -30 -27 -77 -140 -93 -88 -37 -7 0 0 0 0 0 0 0 0 0 0
0 0 0 0 0 0 -1 -3 0 -2 0 0 0 0 0 0 -4 -28 -184 -2 0 -118 -68 -49 -44 -79 -129 -132 -98 -50 -44 0 -40 0 0 -25 0 -6 0 0 0 0 0 0 0 0 -2 0 0
0 0 0 0 0 0 0 0 -1 0 0 0 0 0 0 -53 -54 -103 -109 -57 -39 -15 -13 -26 -51 -64 -75 -64 -46 -16 -7 -3 -8 -1 -16 -7 0 0 0 0 0 0 0 0 0 0 0 0 0
-11 -30 0 0 0 0 0 -4 -1 0 0 0 0 0 -17 -3 -4 -31 -1 -11 -1 0 -10 -19 -32 -35 -30 -18 -26 -15 -31 -14 -2 -2 0 0 0 0 0 0 0 0 0 0 -1 0 0 0 0
0 0 0 -1 0 0 -3 -9 -133 0 0 -4 -1 0 -38 0 -23 -71 -15 0 0 0 -5 -6 -6 -10 -11 -11 -8 -12 -1 -1 0 -1 -4 -9 -3 -1 -5 -7 -7 -24 -13 0 0 0 0 0 -1
Wind_Speed
nan nan nan nan nan nan nan nan nan nan nan nan nan nan nan 26 nan 24 nan nan nan 28 30 32 32 39 35 34 36 38 35 35 36 36 41 42 37 34 35 nan nan nan nan nan nan nan nan nan nan
nan nan nan nan nan nan nan nan nan nan nan nan nan nan nan 9 32 23 nan nan nan 29 28 nan 37 36 38 33 34 39 40 37 36 36 41 45 42 40 nan nan nan nan nan nan nan nan nan nan nan
nan nan nan nan nan nan nan nan nan nan nan nan nan nan nan nan nan nan 29 21 25 30 32 34 40 39 38 36 33 38 39 38 36 36 41 46 44 44 42 nan nan nan nan nan nan nan nan nan nan
nan nan nan nan nan nan nan nan nan nan nan nan nan nan nan nan nan nan 33 26 30 31 31 37 44 36 34 36 36 40 41 39 39 40 43 48 46 46 46 nan nan nan nan nan nan nan nan nan nan
nan nan nan nan nan nan nan nan nan nan nan nan nan nan nan nan nan nan 37 28 29 30 32 38 41 32 38 38 38 39 41 41 43 44 45 47 44 45 47 47 nan nan nan nan nan nan nan nan 31
nan nan nan nan nan nan nan nan nan nan nan nan nan nan nan 33 27 nan nan 31 29 32 33 41 46 37 35 37 35 35 38 39 42 45 47 46 45 46 46 46 43 41 40 41 nan 36 35 33 31
nan nan nan nan nan nan nan nan nan nan nan nan 22 9 32 35 32 nan nan nan nan 34 34 40 37 32 30 33 35 35 41 41 43 44 45 45 46 46 47 45 44 41 38 35 35 33 33 31 29
nan nan nan nan nan nan nan nan nan nan nan nan nan 13 32 nan nan nan nan nan 32 35 35 36 36 33 34 38 38 40 42 42 44 44 44 45 45 45 45 45 42 38 38 34 36 32 32 33 31
nan nan nan nan nan nan nan nan nan nan nan nan nan nan nan nan 34 nan nan 30 31 34 36 35 37 37 38 40 44 43 43 40 40 40 41 44 nan nan nan nan 47 41 39 38 37 42 39 34 34
nan nan nan nan nan nan nan nan nan nan nan nan nan nan nan nan 31 32 nan 29 33 37 38 37 34 37 41 39 45 48 45 42 41 nan 37 38 nan nan nan nan 45 45 40 36 40 37 44 41 36
nan nan nan nan nan nan nan nan nan nan nan nan nan nan nan nan 39 31 31 27 29 34 33 38 44 36 36 40 43 45 44 42 40 42 40 41 39 41 42 43 45 39 44 36 39 44 40 47 41
nan nan nan nan nan nan nan nan nan nan nan nan nan 31 nan nan nan nan nan nan nan nan nan nan 31 36 35 38 45 44 43 43 42 43 42 42 43 43 41 41 46 39 41 39 40 41 44 38 39
nan nan nan nan nan nan nan nan nan nan nan nan nan nan nan nan nan nan nan nan nan nan nan nan nan 44 39 38 41 45 45 46 45 45 47 45 47 43 44 40 38 43 42 42 41 40 41 42 42
nan nan nan nan nan nan nan nan nan nan nan nan nan nan nan nan nan nan nan nan nan nan nan nan nan 46 42 41 41 42 46 46 47 45 46 50 44 45 42 36 35 40 42 40 39 40 42 43 40
nan nan nan nan nan nan nan nan nan nan nan nan nan nan nan nan nan nan nan 41 nan nan nan 35 36 40 47 46 44 44 46 50 44 46 46 48 48 45 40 37 36 38 40 36 44 40 45 42 42
nan nan nan nan nan nan nan nan nan nan nan nan nan nan nan nan nan nan nan nan 43 36 38 37 nan 43 49 49 48 48 48 48 46 45 46 49 51 43 37 37 42 39 40 43 42 44 40 43 37
nan nan nan nan nan nan nan nan nan nan nan nan nan nan nan nan nan 38 nan nan nan nan 44 37 35 36 44 51 49 50 49 47 43 46 45 50 48 44 34 40 40 43 40 43 46 40 43 44 38
nan nan nan nan nan nan nan nan nan nan nan nan nan nan nan nan nan nan nan nan nan 44 42 38 37 41 47 50 51 48 46 46 44 42 45 47 46 42 42 36 40 43 41 43 42 41 43 44 42
nan nan nan nan nan nan nan nan nan nan nan nan nan nan nan nan nan nan nan nan nan 41 44 43 43 44 49 47 49 46 44 44 43 42 42 45 44 42 43 36 43 44 45 37 43 44 42 43 27
nan nan nan nan nan nan nan nan nan nan nan nan nan nan nan nan nan nan nan nan 42 48 52 48 48 48 49 48 45 41 41 37 39 41 42 41 40 41 43 39 41 43 42 41 39 40 40 38 37
nan nan nan nan nan nan nan nan nan nan nan nan nan nan nan nan nan nan nan nan nan nan 48 50 51 51 44 43 43 41 36 33 37 39 39 37 38 43 40 39 34 42 35 38 38 39 35 38 36
nan nan nan nan nan nan nan nan nan nan nan nan nan nan nan nan nan nan nan nan nan nan nan 48 45 42 42 41 38 37 35 34 33 34 35 38 39 41 36 36 29 36 31 33 35 33 36 40 39
nan nan nan nan nan nan nan nan nan nan nan nan nan nan nan nan nan nan nan nan nan nan nan 40 38 41 36 40 33 33 31 33 32 33 41 35 38 39 35 33 31 33 28 33 34 38 38 37 34
nan nan nan nan nan nan nan nan nan nan nan nan nan nan nan nan nan nan nan nan nan nan nan nan 35 34 35 33 34 28 32 24 32 33 37 37 37 35 32 31 30 34 28 36 35 38 38 33 32
nan nan nan nan nan nan nan nan nan nan nan nan nan nan nan nan nan nan nan nan nan nan nan nan nan 30 29 32 30 25 25 28 35 38 36 37 33 30 28 33 35 33 34 36 35 35 35 34 29
7 7 nan nan nan nan nan nan nan nan nan nan nan nan nan nan nan nan nan nan nan nan nan 30 32 27 32 30 28 28 31 32 36 34 34 31 30 30 35 35 37 34 35 34 33 34 30 31 27
2 11 5 13 20 nan nan nan nan nan nan nan nan nan nan nan nan nan nan nan nan nan 34 28 30 33 33 33 32 33 31 31 33 31 30 31 33 35 36 37 35 34 33 33 34 26 28 30 25
16 3 11 24 nan nan 1 nan nan nan nan nan nan nan nan 43 30 26 nan nan 37 31 32 33 34 34 34 34 35 31 33 37 36 31 35 34 33 35 35 34 32 34 32 30 28 27 26 25 22
nan nan 16 20 nan 19 9 29 nan nan nan nan nan nan 45 43 46 47 43 27 26 32 34 35 34 33 33 33 36 36 35 35 33 33 33 34 34 33 31 30 31 28 26 24 25 17 25 21 21
6 19 18 25 3 14 nan nan nan 35 34 nan nan nan 45 45 41 37 26 27 32 32 35 31 30 30 34 34 32 31 31 32 32 32 32 32 32 29 29 29 26 25 22 24 21 20 19 21 21
Wind_Direction
nan nan nan nan nan nan nan nan nan nan nan nan nan nan nan 172 nan 226 nan nan nan 323 334 340 340 340 326 321 331 339 336 335 334 332 334 340 342 343 343 nan nan nan nan nan nan nan nan nan nan
nan nan nan nan nan nan nan nan nan nan nan nan nan nan nan 213 234 261 nan nan nan 317 335 nan 341 335 341 324 322 332 336 333 333 329 333 340 341 341 nan nan nan nan nan nan nan nan nan nan nan
nan nan nan nan nan nan nan nan nan nan nan nan nan nan nan nan nan nan 283 297 309 319 338 350 348 346 345 333 323 328 335 334 331 332 331 336 339 338 341 nan nan nan nan nan nan nan nan nan nan
nan nan nan nan nan nan nan nan nan nan nan nan nan nan nan nan nan nan 282 292 306 329 341 331 337 341 344 340 325 327 334 334 331 331 330 336 336 337 340 nan nan nan nan nan nan nan nan nan nan
nan nan nan nan nan nan nan nan nan nan nan nan nan nan nan nan nan nan 290 303 321 328 331 329 334 336 335 332 324 325 331 332 329 327 332 339 340 338 340 341 nan nan nan nan nan nan nan nan 330
nan nan nan nan nan nan nan nan nan nan nan nan nan nan nan 266 277 nan nan 309 315 319 324 320 329 325 337 336 332 331 331 332 327 326 326 333 339 340 340 343 345 346 340 337 nan 331 327 329 329
nan nan nan nan nan nan nan nan nan nan nan nan 271 253 265 277 279 nan nan nan nan 304 316 317 332 337 335 340 336 326 322 323 326 327 328 335 339 341 341 343 344 345 340 336 331 327 325 326 331
nan nan nan nan nan nan nan nan nan nan nan nan nan 230 259 nan nan nan nan nan 297 302 305 315 320 332 337 336 338 334 330 323 322 327 326 334 338 339 343 342 342 342 339 333 335 329 327 329 327
nan nan nan nan nan nan nan nan nan nan nan nan nan nan nan nan 275 nan nan 291 292 293 293 302 310 316 331 335 333 332 332 325 323 325 327 330 nan nan nan nan 339 340 339 331 326 327 322 328 334
nan nan nan nan nan nan nan nan nan nan nan nan nan nan nan nan 278 285 nan 290 291 292 294 303 304 310 322 327 328 329 331 325 326 nan 332 332 nan nan nan nan 338 333 334 336 327 327 330 327 325
nan nan nan nan nan nan nan nan nan nan nan nan nan nan nan nan 253 271 290 292 310 300 291 301 303 306 317 320 320 320 319 317 320 325 331 330 331 335 334 328 326 327 333 325 329 319 326 323 331
nan nan nan nan nan nan nan nan nan nan nan nan nan 271 nan nan nan nan nan nan nan nan nan nan 297 311 315 314 317 321 316 312 313 318 329 326 329 333 327 324 323 323 328 331 322 325 322 333 332
nan nan nan nan nan nan nan nan nan nan nan nan nan nan nan nan nan nan nan nan nan nan nan nan nan 297 307 311 314 317 315 314 314 317 325 326 328 327 325 321 321 320 330 324 316 323 322 329 319
nan nan nan nan nan nan nan nan nan nan nan nan nan nan nan nan nan nan nan nan nan nan nan nan nan 299 306 307 313 310 313 311 314 315 317 326 326 321 323 318 320 323 323 318 314 314 312 313 323
nan nan nan nan nan nan nan nan nan nan nan nan nan nan nan nan nan nan nan 266 nan nan nan 270 285 293 305 306 306 305 306 310 311 312 314 320 328 323 322 317 322 321 314 314 309 313 310 317 319
nan nan nan nan nan nan nan nan nan nan nan nan nan nan nan nan nan nan nan nan 265 270 267 271 nan 293 301 303 300 298 300 304 307 305 311 319 323 324 317 319 322 315 311 299 307 299 313 313 318
nan nan nan nan nan nan nan nan nan nan nan nan nan nan nan nan nan 245 nan nan nan nan 267 277 283 288 288 291 290 295 300 300 299 300 310 313 319 321 318 318 312 309 302 301 301 303 303 311 307
nan nan nan nan nan nan nan nan nan nan nan nan nan nan nan nan nan nan nan nan nan 265 273 272 277 283 284 284 289 293 296 298 296 301 305 308 311 319 317 311 304 299 302 301 299 301 308 305 303
nan nan nan nan nan nan nan nan nan nan nan nan nan nan nan nan nan nan nan nan nan 262 262 275 278 280 280 285 290 293 300 299 298 295 300 304 309 316 310 303 294 296 303 300 304 304 306 304 317
nan nan nan nan nan nan nan nan nan nan nan nan nan nan nan nan nan nan nan nan 256 260 265 269 272 279 282 287 286 287 292 302 298 294 295 304 309 311 308 307 301 301 302 303 304 305 301 310 308
nan nan nan nan nan nan nan nan nan nan nan nan nan nan nan nan nan nan nan nan nan nan 266 263 271 276 280 287 286 288 290 287 291 292 296 300 307 308 313 312 304 301 305 303 300 302 312 309 314
nan nan nan nan nan nan nan nan nan nan nan nan nan nan nan nan nan nan nan nan nan nan nan 268 274 270 279 285 288 292 289 290 285 288 291 296 306 307 305 300 299 293 301 298 302 306 304 307 310
nan nan nan nan nan nan nan nan nan nan nan nan nan nan nan nan nan nan nan nan nan nan nan 266 267 271 277 283 290 289 290 280 281 289 293 302 300 295 294 297 297 296 301 300 304 300 304 308 307
nan nan nan nan nan nan nan nan nan nan nan nan nan nan nan nan nan nan nan nan nan nan nan nan 269 273 276 285 290 285 285 284 290 296 294 290 286 284 294 304 297 297 304 298 300 299 303 305 308
nan nan nan nan nan nan nan nan nan nan nan nan nan nan nan nan nan nan nan nan nan nan nan nan nan 274 280 287 283 284 282 289 291 289 288 286 282 288 299 295 296 299 298 303 300 301 302 307 306
222 254 nan nan nan nan nan nan nan nan nan nan nan nan nan nan nan nan nan nan nan nan nan 261 264 278 278 277 278 282 291 289 286 287 287 285 290 293 294 296 294 303 306 302 301 303 308 303 305
206 236 240 211 191 nan nan nan nan nan nan nan nan nan nan nan nan nan nan nan nan nan 252 262 270 271 271 270 279 285 290 292 289 289 290 290 287 286 293 290 298 302 300 301 302 309 308 304 304
323 245 235 264 nan nan 262 nan nan nan nan nan nan nan nan 216 209 218 nan nan 242 252 257 258 264 265 267 276 279 279 273 278 275 279 280 280 284 287 292 298 301 301 301 303 307 307 308 307 300
nan nan 196 220 nan 191 132 189 nan nan nan nan nan nan 221 211 216 230 236 238 248 248 250 254 258 263 270 271 266 270 274 276 280 276 277 286 286 291 296 297 299 303 306 309 311 299 303 315 311
211 305 328 251 291 158 nan nan nan 223 219 nan nan nan 220 220 218 226 226 242 240 246 251 253 257 266 268 270 273 273 278 278 277 282 286 289 292 293 292 297 302 305 310 315 310 315 315 313 315